Time[GMT],current_speed[cm/s](2m),current_direction[angular_degrees](2m),temperature[C](2m),current_u[cm/s](2m),current_v[cm/s](2m)
2003-01-31 19:00,44.58,184.1,0.93,-3.16,-44.47
2003-01-31 20:00,35.20,180.9,0.93,-0.55,-35.19
2003-01-31 21:00,21.41,184.4,0.93,-1.65,-21.35
2003-01-31 22:00,13.20,194.3,0.93,-3.25,-12.79
2003-01-31 23:00,15.25,293.4,0.97,-14.00,6.06
2003-02-01 00:00,26.69,323.3,1.10,-15.95,21.40
2003-02-01 01:00,26.40,335.6,1.13,-10.90,24.04
2003-02-01 02:00,22.00,334.6,0.97,-9.45,19.86
2003-02-01 03:00,3.52,359.1,0.93,-0.05,3.52
2003-02-01 04:00,25.22,165.1,1.03,6.49,-24.37
2003-02-01 05:00,41.06,174.2,1.03,4.13,-40.85
2003-02-01 06:00,44.87,184.1,1.07,-3.18,-44.76
2003-02-01 07:00,60.13,188.6,1.00,-9.03,-59.44
2003-02-01 08:00,41.06,186.2,0.90,-4.42,-40.82
2003-02-01 09:00,27.57,180.2,0.90,-0.10,-27.57
2003-02-01 10:00,22.29,182.3,0.90,-0.90,-22.27
2003-02-01 11:00,18.18,220.6,0.93,-11.84,-13.80
2003-02-01 12:00,9.09,306.1,1.07,-7.35,5.35
2003-02-01 13:00,27.86,326.8,1.07,-15.25,23.32
2003-02-01 14:00,20.82,305.7,1.07,-16.91,12.16
2003-02-01 15:00,14.08,299.0,0.93,-12.31,6.83
2003-02-01 16:00,17.01,246.3,0.97,-15.58,-6.84
2003-02-01 17:00,25.81,196.4,0.93,-7.28,-24.76
2003-02-01 18:00,49.57,185.5,1.07,-4.73,-49.34
2003-02-01 19:00,71.86,182.0,1.03,-2.45,-71.82
2003-02-01 20:00,48.98,175.6,0.93,3.73,-48.84
2003-02-01 21:00,35.78,171.8,0.90,5.13,-35.41
2003-02-01 22:00,20.24,186.9,0.86,-2.42,-20.09
2003-02-01 23:00,11.73,212.9,0.86,-6.37,-9.85
2003-02-02 00:00,13.49,292.0,0.86,-12.51,5.06
2003-02-02 01:00,17.89,309.9,0.90,-13.72,11.49
2003-02-02 02:00,20.24,285.3,1.03,-19.52,5.35
2003-02-02 03:00,15.54,298.3,1.10,-13.68,7.38
2003-02-02 04:00,18.18,297.6,1.23,-16.11,8.43
2003-02-02 05:00,17.30,239.6,1.10,-14.93,-8.75
2003-02-02 06:00,48.69,181.3,0.93,-1.07,-48.68
2003-02-02 07:00,43.99,190.4,1.00,-7.94,-43.27
2003-02-02 08:00,56.02,180.9,0.97,-0.88,-56.01
2003-02-02 09:00,49.86,175.6,0.86,3.80,-49.72
2003-02-02 10:00,32.85,184.1,0.86,-2.33,-32.77
2003-02-02 11:00,27.86,204.8,0.86,-11.69,-25.29
2003-02-02 12:00,14.37,264.2,0.86,-14.30,-1.44
2003-02-02 13:00,11.44,313.5,1.00,-8.30,7.87
2003-02-02 14:00,21.41,329.6,1.07,-10.83,18.47
2003-02-02 15:00,18.18,280.4,1.07,-17.89,3.28
2003-02-02 16:00,14.37,257.6,1.13,-14.03,-3.10
2003-02-02 17:00,23.76,178.4,1.00,0.65,-23.75
2003-02-02 18:00,51.03,183.4,1.00,-2.99,-50.95
2003-02-02 19:00,63.06,193.2,0.97,-14.41,-61.39
2003-02-02 20:00,65.41,180.6,0.90,-0.63,-65.40
2003-02-02 21:00,51.62,173.9,0.86,5.51,-51.33
2003-02-02 22:00,30.21,176.3,0.86,1.93,-30.15
2003-02-02 23:00,36.08,171.1,0.83,5.61,-35.64
2003-02-03 00:00,21.41,178.4,0.83,0.58,-21.40
2003-02-03 01:00,8.51,165.8,0.83,2.09,-8.25
2003-02-03 02:00,11.44,124.6,0.83,9.41,-6.50
2003-02-03 03:00,7.33,163.0,0.90,2.15,-7.01
2003-02-03 04:00,30.50,178.1,0.90,1.02,-30.49
2003-02-03 05:00,26.40,189.3,1.00,-4.28,-26.05
2003-02-03 06:00,38.42,185.1,0.97,-3.43,-38.27
2003-02-03 07:00,54.55,178.4,0.93,1.48,-54.53
2003-02-03 08:00,61.30,173.5,0.97,6.92,-60.91
2003-02-03 09:00,55.14,174.6,1.00,5.21,-54.89
2003-02-03 10:00,50.74,164.4,0.97,13.66,-48.87
2003-02-03 11:00,37.25,164.7,0.90,9.81,-35.93
2003-02-03 12:00,27.57,175.3,0.83,2.27,-27.48
2003-02-03 13:00,25.22,160.2,0.83,8.56,-23.73
2003-02-03 14:00,12.32,136.6,0.93,8.46,-8.95
2003-02-03 15:00,18.77,134.5,0.93,13.39,-13.15
2003-02-03 16:00,22.58,169.3,1.00,4.19,-22.19
2003-02-03 17:00,32.56,171.8,1.03,4.67,-32.22
2003-02-03 18:00,41.06,185.8,1.07,-4.17,-40.85
2003-02-03 19:00,54.26,180.9,1.07,-0.85,-54.25
2003-02-03 20:00,64.82,176.3,1.03,4.15,-64.69
2003-02-03 21:00,53.38,182.0,1.13,-1.82,-53.35
2003-02-03 22:00,35.49,183.4,1.07,-2.08,-35.43
2003-02-03 23:00,24.34,182.3,1.07,-0.98,-24.32
2003-02-04 00:00,27.28,168.6,0.93,5.39,-26.74
2003-02-04 01:00,20.24,184.1,0.90,-1.44,-20.19
2003-02-04 02:00,8.21,227.3,0.93,-6.04,-5.57
2003-02-04 03:00,2.93,293.8,1.03,-2.68,1.18
2003-02-04 04:00,4.40,95.5,1.03,4.38,-0.42
2003-02-04 05:00,25.22,154.9,0.97,10.71,-22.84
2003-02-04 06:00,32.26,173.9,1.00,3.44,-32.08
2003-02-04 07:00,36.66,179.8,1.07,0.10,-36.66
2003-02-04 08:00,38.13,174.9,1.07,3.37,-37.98
2003-02-04 09:00,56.02,167.2,1.00,12.42,-54.63
2003-02-04 10:00,41.94,176.0,1.03,2.94,-41.84
2003-02-04 11:00,23.76,189.3,1.03,-3.86,-23.44
2003-02-04 12:00,14.96,246.3,1.00,-13.70,-6.01
2003-02-04 13:00,8.51,295.2,1.10,-7.70,3.62
2003-02-04 14:00,24.05,331.7,1.13,-11.39,21.18
2003-02-04 15:00,27.86,341.6,1.10,-8.80,26.44
2003-02-04 16:00,17.89,10.7,1.07,3.33,17.58
2003-02-04 17:00,7.63,77.9,1.03,7.46,1.60
2003-02-04 18:00,10.56,144.3,1.03,6.16,-8.58
2003-02-04 19:00,14.08,196.7,1.07,-4.05,-13.48
2003-02-04 20:00,32.85,182.7,1.10,-1.52,-32.81
2003-02-04 21:00,46.93,171.1,1.10,7.29,-46.36
2003-02-04 22:00,39.89,184.8,1.17,-3.32,-39.75
2003-02-04 23:00,28.45,186.9,1.07,-3.41,-28.25
2003-02-05 00:00,18.48,154.9,1.07,7.84,-16.73
2003-02-05 01:00,18.18,148.2,1.00,9.58,-15.46
2003-02-05 02:00,9.68,97.6,0.97,9.59,-1.28
2003-02-05 03:00,24.93,82.1,0.93,24.69,3.43
2003-02-05 04:00,15.54,117.3,0.93,13.82,-7.12
2003-02-05 05:00,16.72,145.4,0.93,9.50,-13.76
2003-02-05 06:00,20.24,146.1,0.93,11.29,-16.80
2003-02-05 07:00,24.64,143.6,0.97,14.61,-19.84
2003-02-05 08:00,45.46,168.2,0.97,9.26,-44.51
2003-02-05 09:00,45.46,176.0,0.93,3.19,-45.35
2003-02-05 10:00,42.24,153.8,0.93,18.63,-37.91
2003-02-05 11:00,35.78,152.8,0.93,16.37,-31.82
2003-02-05 12:00,24.05,132.4,0.93,17.77,-16.21
2003-02-05 13:00,15.54,96.5,0.93,15.44,-1.76
2003-02-05 14:00,17.30,54.3,0.93,14.06,10.09
2003-02-05 15:00,19.36,58.5,0.97,16.51,10.10
2003-02-05 16:00,19.65,7.6,1.03,2.59,19.48
2003-02-05 17:00,4.11,40.6,1.07,2.67,3.12
2003-02-05 18:00,5.57,172.8,1.07,0.70,-5.53
2003-02-05 19:00,21.70,208.3,1.03,-10.30,-19.11
2003-02-05 20:00,32.56,204.1,1.00,-13.30,-29.72
2003-02-05 21:00,39.01,178.1,1.00,1.30,-38.99
2003-02-05 22:00,38.13,179.5,0.93,0.34,-38.13
2003-02-05 23:00,38.72,182.3,0.93,-1.56,-38.68
2003-02-06 00:00,25.52,179.5,0.90,0.22,-25.52
2003-02-06 01:00,17.60,160.5,0.86,5.87,-16.59
2003-02-06 02:00,8.80,267.0,0.90,-8.79,-0.45
2003-02-06 03:00,13.20,346.8,0.86,-3.01,12.85
2003-02-06 04:00,20.24,343.0,0.90,-5.93,19.35
2003-02-06 05:00,17.60,324.4,0.86,-10.26,14.30
2003-02-06 06:00,14.96,272.0,0.90,-14.95,0.51
2003-02-06 07:00,9.68,262.5,0.90,-9.60,-1.27
2003-02-06 08:00,6.45,265.3,0.90,-6.43,-0.53
2003-02-06 09:00,20.24,204.1,0.86,-8.27,-18.47
2003-02-06 10:00,21.70,194.6,0.80,-5.48,-21.00
2003-02-06 11:00,29.04,194.6,0.90,-7.33,-28.10
2003-02-06 12:00,13.49,176.7,0.76,0.78,-13.47
2003-02-06 13:00,6.45,267.0,0.76,-6.44,-0.33
2003-02-06 14:00,8.80,282.9,0.80,-8.58,1.96
2003-02-06 15:00,10.85,332.4,0.76,-5.02,9.62
2003-02-06 16:00,23.17,6.5,0.86,2.63,23.02
2003-02-06 17:00,13.49,13.5,0.86,3.16,13.12
2003-02-06 18:00,8.51,287.8,0.90,-8.10,2.60
2003-02-06 19:00,2.05,236.1,0.97,-1.70,-1.14
2003-02-06 20:00,12.32,157.7,0.93,4.68,-11.40
2003-02-06 21:00,20.24,197.8,0.93,-6.18,-19.27
2003-02-06 22:00,23.17,194.3,0.93,-5.71,-22.46
2003-02-06 23:00,28.45,171.8,0.83,4.08,-28.16
2003-02-07 00:00,21.12,179.8,0.80,0.06,-21.12
2003-02-07 01:00,5.87,118.3,0.83,5.16,-2.78
2003-02-07 02:00,3.81,334.2,0.80,-1.66,3.43
2003-02-07 03:00,15.25,323.7,0.80,-9.04,12.28
2003-02-07 04:00,16.42,353.1,0.80,-1.96,16.31
2003-02-07 05:00,19.06,17.8,0.83,5.82,18.16
2003-02-07 06:00,6.45,348.2,0.83,-1.32,6.32
2003-02-07 07:00,3.23,289.9,0.83,-3.03,1.10
2003-02-07 08:00,11.44,200.6,0.83,-4.02,-10.71
2003-02-07 09:00,22.00,190.7,0.80,-4.10,-21.61
2003-02-07 10:00,24.64,197.4,0.76,-7.38,-23.51
2003-02-07 11:00,39.60,171.4,0.83,5.91,-39.15
2003-02-07 12:00,25.81,173.9,0.80,2.76,-25.66
2003-02-07 13:00,9.68,174.2,0.73,0.97,-9.63
2003-02-07 14:00,6.45,216.8,0.70,-3.86,-5.17
2003-02-07 15:00,4.40,335.3,0.80,-1.84,4.00
2003-02-07 16:00,15.54,320.8,0.73,-9.82,12.05
2003-02-07 17:00,16.72,298.3,0.73,-14.71,7.94
2003-02-07 18:00,17.89,300.4,0.83,-15.42,9.07
2003-02-07 19:00,16.72,268.5,0.70,-16.71,-0.45
2003-02-07 20:00,13.20,232.9,0.80,-10.53,-7.95
2003-02-07 21:00,17.30,202.7,0.76,-6.68,-15.96
2003-02-07 22:00,22.88,198.1,0.80,-7.12,-21.74
2003-02-07 23:00,32.56,180.9,0.86,-0.51,-32.55
2003-02-08 00:00,32.85,184.4,0.80,-2.53,-32.75
2003-02-08 01:00,29.04,200.9,0.83,-10.38,-27.12
2003-02-08 02:00,23.76,213.6,0.90,-13.15,-19.79
2003-02-08 03:00,21.70,231.2,0.86,-16.91,-13.61
2003-02-08 04:00,9.97,238.2,0.90,-8.48,-5.25
2003-02-08 05:00,9.09,321.2,1.00,-5.70,7.09
2003-02-08 06:00,14.08,334.9,1.07,-5.97,12.75
2003-02-08 07:00,10.56,270.2,1.00,-10.56,0.04
2003-02-08 08:00,2.93,280.4,1.03,-2.88,0.53
2003-02-08 09:00,3.23,186.9,1.10,-0.39,-3.20
2003-02-08 10:00,25.52,175.3,1.03,2.10,-25.43
2003-02-08 11:00,24.93,190.4,1.07,-4.50,-24.52
2003-02-08 12:00,32.26,190.4,1.00,-5.82,-31.73
2003-02-08 13:00,31.38,192.9,0.66,-6.98,-30.60
2003-02-08 14:00,22.00,202.7,0.70,-8.49,-20.29
2003-02-08 15:00,13.20,215.0,0.73,-7.57,-10.81
2003-02-08 16:00,9.97,277.2,0.80,-9.89,1.26
2003-02-08 17:00,7.33,327.5,0.86,-3.94,6.19
2003-02-08 18:00,23.46,352.1,1.07,-3.23,23.24
2003-02-08 19:00,14.37,344.7,1.03,-3.79,13.86
2003-02-08 20:00,12.91,352.8,1.00,-1.62,12.80
2003-02-08 21:00,2.93,132.4,1.03,2.17,-1.98
2003-02-09 03:00,7.04,146.4,0.80,3.89,-5.87
2003-02-09 04:00,0.88,56.4,0.70,0.73,0.49
2003-02-09 05:00,11.73,33.6,0.73,6.49,9.77
2003-02-09 06:00,12.91,25.5,0.73,5.55,11.65
2003-02-09 07:00,8.21,34.3,0.73,4.63,6.79
2003-02-09 08:00,8.21,147.1,0.73,4.45,-6.90
2003-02-09 09:00,15.25,182.3,0.73,-0.61,-15.24
2003-02-09 10:00,20.82,187.6,0.76,-2.75,-20.64
2003-02-09 11:00,21.41,195.3,0.70,-5.66,-20.65
2003-02-09 12:00,29.04,192.2,0.73,-6.11,-28.39
2003-02-09 13:00,34.32,181.3,0.53,-0.75,-34.31
2003-02-09 14:00,22.58,189.7,0.56,-3.80,-22.26
2003-02-09 15:00,12.91,179.5,0.56,0.11,-12.90
2003-02-09 16:00,4.40,314.5,0.56,-3.14,3.08
2003-02-09 17:00,15.84,353.1,0.63,-1.89,15.73
2003-02-09 18:00,13.79,359.8,0.76,-0.04,13.79
2003-02-09 19:00,21.12,29.7,0.73,10.47,18.34
2003-02-09 20:00,12.91,72.3,0.73,12.29,3.93
2003-02-09 21:00,3.81,140.8,0.73,2.41,-2.96
2003-02-09 22:00,12.32,155.9,0.73,5.02,-11.25
2003-02-09 23:00,22.00,182.3,0.76,-0.89,-21.98
2003-02-10 00:00,27.28,162.6,0.70,8.15,-26.03
2003-02-10 01:00,32.85,167.9,0.66,6.89,-32.12
2003-02-10 02:00,28.16,167.2,0.63,6.24,-27.46
2003-02-10 03:00,20.82,177.4,0.73,0.95,-20.80
2003-02-10 04:00,13.79,194.3,0.73,-3.40,-13.36
2003-02-10 05:00,16.13,260.7,0.70,-15.92,-2.60
2003-02-10 06:00,13.20,271.3,0.66,-13.20,0.29
2003-02-10 07:00,18.48,294.8,0.63,-16.77,7.76
2003-02-10 08:00,18.77,305.7,0.66,-15.24,10.96
2003-02-10 09:00,15.54,287.4,0.60,-14.83,4.66
2003-02-10 10:00,13.49,278.3,0.49,-13.35,1.95
2003-02-10 11:00,6.16,255.4,0.60,-5.96,-1.55
2003-02-10 12:00,7.33,198.1,0.63,-2.28,-6.97
2003-02-10 13:00,13.49,192.2,0.56,-2.84,-13.19
2003-02-10 14:00,14.66,131.3,0.66,11.01,-9.68
2003-02-10 15:00,17.89,141.9,0.76,11.05,-14.07
2003-02-10 16:00,9.68,114.1,0.70,8.84,-3.95
2003-02-10 17:00,12.03,93.0,0.73,12.01,-0.63
2003-02-10 18:00,14.66,72.6,0.73,13.99,4.38
2003-02-10 19:00,14.66,43.8,0.73,10.15,10.59
2003-02-10 20:00,7.33,28.7,0.76,3.52,6.43
2003-02-10 21:00,5.57,100.0,0.76,5.49,-0.97
2003-02-10 22:00,4.99,203.8,0.76,-2.01,-4.56
2003-02-10 23:00,10.56,189.7,0.73,-1.78,-10.41
2003-02-11 00:00,16.72,196.7,0.76,-4.81,-16.01
2003-02-11 01:00,32.85,177.0,0.70,1.70,-32.81
2003-02-11 02:00,23.76,183.7,0.66,-1.54,-23.71
2003-02-11 03:00,17.30,179.1,0.70,0.26,-17.30
2003-02-11 04:00,17.30,217.5,0.63,-10.53,-13.73
2003-02-11 05:00,12.61,268.8,0.60,-12.61,-0.26
2003-02-11 06:00,11.73,316.6,0.63,-8.06,8.53
2003-02-11 07:00,12.32,337.4,0.70,-4.74,11.37
2003-02-11 08:00,11.73,16.4,0.66,3.30,11.26
2003-02-11 09:00,12.91,6.9,0.76,1.54,12.81
2003-02-11 10:00,7.63,102.5,0.70,7.45,-1.65
2003-02-11 11:00,14.66,165.8,0.73,3.60,-14.22
2003-02-11 12:00,37.25,178.1,0.70,1.24,-37.23
2003-02-11 13:00,37.84,168.2,0.66,7.71,-37.04
2003-02-11 14:00,46.93,176.3,0.60,3.00,-46.83
2003-02-11 15:00,39.89,177.7,0.66,1.57,-39.86
2003-02-11 16:00,34.02,181.6,0.70,-0.95,-34.01
2003-02-11 17:00,20.53,204.8,0.73,-8.62,-18.64
2003-02-11 18:00,14.96,213.6,0.76,-8.28,-12.46
2003-02-11 19:00,16.42,262.1,0.80,-16.27,-2.25
2003-02-11 20:00,4.11,273.4,0.83,-4.10,0.24
2003-02-11 21:00,14.08,319.1,0.97,-9.22,10.64
2003-02-11 22:00,22.00,340.2,0.93,-7.46,20.69
2003-02-11 23:00,16.42,323.7,0.86,-9.73,13.23
2003-02-12 00:00,4.69,314.2,0.86,-3.37,3.27
2003-02-12 01:00,9.39,182.3,0.86,-0.38,-9.38
2003-02-12 02:00,18.48,184.8,0.83,-1.54,-18.41
2003-02-12 03:00,17.01,178.1,0.90,0.57,-17.00
2003-02-12 04:00,26.10,165.4,0.76,6.57,-25.26
2003-02-12 05:00,18.77,163.3,0.76,5.39,-17.98
2003-02-12 06:00,4.40,187.9,0.73,-0.61,-4.36
2003-02-12 07:00,4.11,246.7,0.73,-3.77,-1.63
2003-02-12 08:00,8.80,291.3,0.73,-8.20,3.20
2003-02-12 09:00,2.93,296.9,0.66,-2.61,1.33
2003-02-12 10:00,8.80,356.0,0.70,-0.62,8.78
2003-02-12 11:00,10.27,323.7,0.70,-6.08,8.27
2003-02-12 12:00,12.32,191.8,0.66,-2.52,-12.06
2003-02-12 13:00,18.18,180.9,0.70,-0.29,-18.18
2003-02-12 14:00,22.00,200.9,0.63,-7.86,-20.54
2003-02-12 15:00,30.50,173.5,0.66,3.44,-30.31
2003-02-12 16:00,35.49,178.8,0.53,0.75,-35.48
2003-02-12 17:00,20.82,180.6,0.63,-0.20,-20.82
2003-02-12 18:00,16.13,183.0,0.70,-0.85,-16.11
2003-02-12 19:00,19.06,192.5,0.66,-4.13,-18.61
2003-02-12 20:00,15.25,228.4,0.60,-11.40,-10.13
2003-02-12 21:00,4.40,242.4,0.63,-3.90,-2.04
2003-02-12 22:00,7.04,214.0,0.70,-3.93,-5.84
2003-02-12 23:00,4.99,276.9,0.73,-4.95,0.60
2003-02-13 00:00,30.21,164.7,0.63,7.96,-29.14
2003-02-13 01:00,26.40,184.4,0.63,-2.03,-26.32
2003-02-13 02:00,38.42,185.8,0.53,-3.90,-38.22
2003-02-13 03:00,39.60,179.8,0.46,0.11,-39.60
2003-02-13 04:00,36.96,176.7,0.39,2.14,-36.89
2003-02-13 05:00,29.04,178.1,0.39,0.97,-29.02
2003-02-14 00:00,2.64,208.7,0.36,-1.27,-2.32
2003-02-14 01:00,14.37,204.8,0.36,-6.03,-13.05
2003-02-14 02:00,28.74,167.5,0.26,6.20,-28.07
2003-02-14 03:00,24.64,178.1,0.33,0.82,-24.62
2003-02-14 04:00,32.56,178.8,0.26,0.69,-32.55
2003-02-14 05:00,32.56,177.7,0.22,1.28,-32.53
2003-02-14 06:00,23.46,178.1,0.19,0.78,-23.45
2003-02-14 07:00,16.13,206.2,0.02,-7.13,-14.47
2003-02-14 08:00,9.68,247.4,-0.01,-8.93,-3.73
2003-02-14 09:00,10.85,275.1,-0.05,-10.81,0.97
2003-02-14 10:00,10.85,320.5,-0.05,-6.90,8.37
2003-02-14 11:00,4.99,53.3,-0.18,4.00,2.98
2003-02-14 12:00,1.76,160.2,0.05,0.60,-1.66
2003-02-14 13:00,5.57,316.6,0.09,-3.83,4.05
2003-02-14 14:00,25.22,187.2,0.05,-3.18,-25.02
2003-02-14 15:00,45.46,173.5,-0.05,5.13,-45.17
2003-02-14 16:00,48.10,180.9,-0.01,-0.76,-48.10
2003-02-14 17:00,48.69,176.3,-0.25,3.12,-48.59
2003-02-14 18:00,39.60,166.8,-0.08,9.02,-38.56
2003-02-14 19:00,28.16,159.8,-0.05,9.72,-26.43
2003-02-14 20:00,26.40,176.0,-0.28,1.85,-26.33
2003-02-14 21:00,13.20,176.7,-0.32,0.76,-13.18
2003-02-14 22:00,4.40,259.7,-0.32,-4.33,-0.79
2003-02-14 23:00,4.40,297.3,-0.25,-3.91,2.02
2003-02-15 00:00,1.47,203.1,-0.18,-0.57,-1.35
2003-02-15 01:00,12.03,269.5,0.05,-12.02,-0.10
2003-02-15 02:00,26.98,190.0,-0.08,-4.71,-26.57
2003-02-15 03:00,32.26,190.0,0.05,-5.63,-31.77
2003-02-15 04:00,38.13,206.9,-0.05,-17.26,-34.00
2003-02-15 05:00,43.12,172.1,-0.11,5.92,-42.71
2003-02-15 06:00,43.70,177.4,-0.32,1.99,-43.66
2003-02-15 07:00,31.68,193.2,-0.22,-7.24,-30.84
2003-02-15 08:00,16.13,178.1,-0.15,0.54,-16.12
2003-02-15 09:00,8.80,157.7,-0.11,3.34,-8.14
2003-02-15 10:00,3.23,356.0,-0.18,-0.23,3.22
2003-02-15 11:00,7.92,322.6,-0.05,-4.81,6.29
2003-02-15 12:00,19.65,305.4,0.16,-16.02,11.37
2003-02-15 13:00,17.60,300.8,0.26,-15.12,9.01
2003-02-15 14:00,2.93,194.3,0.12,-0.72,-2.84
2003-02-15 15:00,41.06,165.4,-0.22,10.33,-39.74
2003-02-15 16:00,42.82,173.5,0.02,4.83,-42.55
2003-02-15 17:00,58.95,177.4,-0.39,2.69,-58.89
2003-02-15 18:00,50.74,178.1,-0.35,1.69,-50.71
2003-02-15 19:00,41.65,178.4,-0.25,1.13,-41.63
2003-02-15 20:00,24.64,189.0,-0.11,-3.85,-24.33
2003-02-15 21:00,22.58,158.8,-0.39,8.18,-21.05
2003-02-15 22:00,13.49,150.0,-0.45,6.75,-11.68
2003-02-15 23:00,5.87,170.7,-0.39,0.95,-5.79
2003-02-16 00:00,9.97,88.4,-0.32,9.97,0.27
2003-02-16 01:00,12.32,223.8,-0.32,-8.53,-8.89
2003-02-16 02:00,17.60,178.8,-0.22,0.37,-17.59
2003-02-16 03:00,29.33,182.3,-0.32,-1.18,-29.31
2003-02-16 04:00,35.49,180.9,-0.25,-0.56,-35.48
2003-02-16 05:00,43.99,167.5,-0.15,9.49,-42.96
2003-02-16 06:00,52.21,174.9,,4.62,-52.00
2003-02-16 07:00,46.63,179.5,,0.41,-46.63
2003-02-16 08:00,30.80,171.8,-0.39,4.41,-30.48
2003-02-17 19:00,70.98,178.8,,1.50,-70.96
2003-02-17 20:00,52.79,184.4,-0.49,-4.07,-52.64
2003-02-17 21:00,43.70,186.2,-0.45,-4.70,-43.45
2003-02-17 22:00,25.81,201.6,-0.42,-9.52,-23.99
2003-02-17 23:00,25.22,216.4,-0.49,-14.97,-20.30
2003-02-18 00:00,23.76,248.8,-0.39,-22.14,-8.61
2003-02-18 01:00,28.74,324.0,-0.01,-16.89,23.25
2003-02-18 02:00,29.04,331.7,0.02,-13.75,25.58
2003-02-18 03:00,8.51,321.2,0.05,-5.33,6.63
2003-02-18 04:00,24.05,175.3,-0.22,1.98,-23.97
2003-02-18 05:00,34.02,180.9,-0.18,-0.54,-34.02
2003-02-18 06:00,43.12,179.1,-0.05,0.64,-43.11
2003-02-18 07:00,61.01,178.1,-0.05,2.03,-60.97
2003-02-18 08:00,61.59,172.5,-0.39,8.08,-61.06
2003-02-18 09:00,50.74,168.2,-0.42,10.34,-49.68
2003-02-18 10:00,38.13,173.5,,4.30,-37.89
2003-02-18 11:00,23.46,189.0,,-3.67,-23.18
2003-02-18 12:00,11.44,219.6,-0.45,-7.29,-8.82
2003-02-18 13:00,0.59,124.6,-0.42,0.48,-0.33
2003-02-18 14:00,29.62,323.7,0.09,-17.56,23.86
2003-02-18 15:00,10.27,346.8,0.12,-2.34,10.00
2003-02-18 16:00,31.38,174.6,-0.25,2.97,-31.24
2003-02-18 17:00,35.78,178.8,-0.25,0.75,-35.77
2003-02-18 18:00,40.77,179.8,-0.08,0.11,-40.77
2003-02-18 19:00,74.20,171.1,-0.22,11.53,-73.30
2003-02-18 20:00,66.87,174.6,-0.35,6.32,-66.57
2003-02-18 21:00,54.55,170.0,-0.32,9.47,-53.73
2003-02-18 22:00,37.25,172.8,-0.25,4.66,-36.96
2003-02-18 23:00,31.09,173.9,-0.35,3.32,-30.91
2003-02-19 00:00,24.64,182.0,-0.49,-0.84,-24.62
2003-02-19 01:00,18.77,192.2,,-3.95,-18.35
2003-02-19 02:00,9.09,251.2,-0.49,-8.61,-2.93
2003-02-19 03:00,12.91,21.6,-0.22,4.76,12.00
2003-02-19 04:00,7.92,106.7,-0.39,7.58,-2.28
2003-02-19 05:00,32.85,184.8,-0.42,-2.73,-32.74
2003-02-19 06:00,41.06,192.5,-0.22,-8.89,-40.09
2003-02-19 07:00,68.63,170.7,,11.08,-67.73
2003-02-19 08:00,70.39,173.2,-0.45,8.37,-69.89
2003-02-19 09:00,54.85,165.4,-0.35,13.80,-53.08
2003-02-19 10:00,45.46,165.1,-0.25,11.70,-43.93
2003-02-19 11:00,22.58,168.9,-0.15,4.33,-22.17
2003-02-19 12:00,21.70,164.0,,5.97,-20.87
2003-02-19 13:00,6.16,208.0,,-2.89,-5.44
2003-02-19 14:00,11.44,307.8,-0.39,-9.03,7.02
2003-02-19 15:00,23.76,12.1,-0.11,4.99,23.23
2003-02-19 16:00,9.68,114.4,-0.22,8.81,-4.01
2003-02-19 17:00,19.06,178.8,-0.28,0.40,-19.06
2003-02-19 18:00,34.61,195.7,-0.22,-9.35,-33.32
2003-02-19 19:00,44.29,174.9,-0.22,3.92,-44.11
2003-02-19 20:00,56.90,176.7,-0.32,3.29,-56.80
2003-02-19 21:00,58.95,174.9,-0.39,5.21,-58.72
2003-02-19 22:00,50.15,158.4,-0.49,18.46,-46.63
2003-02-19 23:00,27.28,166.8,-0.22,6.21,-26.56
2003-02-20 00:00,17.89,161.2,-0.39,5.76,-16.94
2003-02-20 01:00,4.11,55.4,-0.49,3.38,2.33
2003-02-20 02:00,17.01,16.0,-0.42,4.69,16.35
2003-02-20 03:00,31.97,20.6,-0.42,11.23,29.93
2003-02-20 04:00,16.72,19.9,-0.39,5.68,15.72
2003-02-20 05:00,2.35,97.2,-0.42,2.33,-0.29
2003-02-20 06:00,9.68,180.9,-0.35,-0.15,-9.68
2003-02-20 07:00,24.05,176.3,-0.45,1.54,-24.00
2003-02-20 08:00,44.87,174.6,,4.24,-44.67
2003-02-20 09:00,51.03,166.5,,11.93,-49.62
2003-02-20 10:00,50.15,175.3,-0.35,4.13,-49.98
2003-02-20 11:00,39.01,173.9,-0.45,4.17,-38.79
2003-02-20 12:00,26.40,179.1,,0.39,-26.39
2003-02-20 13:00,13.49,191.8,,-2.76,-13.21
2003-02-20 14:00,11.44,275.1,-0.42,-11.39,1.02
2003-02-20 15:00,9.68,347.2,-0.35,-2.15,9.44
2003-02-20 16:00,17.89,352.4,-0.05,-2.35,17.74
2003-02-20 17:00,2.35,68.7,0.05,2.19,0.85
2003-02-20 18:00,18.48,153.8,-0.01,8.15,-16.58
2003-02-20 19:00,30.80,181.6,-0.05,-0.86,-30.78
2003-02-20 20:00,31.68,185.1,-0.01,-2.83,-31.55
2003-02-20 21:00,57.49,168.9,-0.08,11.02,-56.42
2003-02-20 22:00,49.86,178.1,-0.08,1.66,-49.83
2003-02-20 23:00,32.56,176.7,-0.08,1.88,-32.50
2003-02-21 00:00,19.06,171.4,-0.18,2.85,-18.85
2003-02-21 01:00,5.87,94.4,-0.22,5.85,-0.45
2003-02-21 02:00,8.80,13.2,-0.25,2.01,8.57
2003-02-21 03:00,27.86,20.9,-0.22,9.95,26.03
2003-02-21 04:00,31.09,13.9,-0.18,7.46,30.18
2003-02-21 05:00,11.15,339.1,-0.18,-3.97,10.41
2003-02-21 06:00,5.57,14.6,-0.11,1.40,5.39
2003-02-21 07:00,17.89,196.4,-0.18,-5.04,-17.17
2003-02-21 08:00,29.62,188.6,-0.32,-4.45,-29.29
2003-02-21 09:00,50.15,161.9,-0.22,15.57,-47.68
2003-02-21 10:00,50.15,167.9,-0.28,10.52,-49.04
2003-02-21 11:00,42.82,176.7,-0.32,2.48,-42.75
2003-02-21 12:00,26.69,188.3,-0.42,-3.85,-26.41
2003-02-21 13:00,16.13,186.9,-0.45,-1.93,-16.02
2003-02-21 14:00,5.57,149.6,-0.39,2.82,-4.81
2003-02-21 15:00,10.56,331.4,-0.32,-5.06,9.27
2003-02-21 16:00,19.94,20.6,-0.22,7.01,18.67
2003-02-21 17:00,20.24,36.4,-0.05,12.01,16.29
2003-02-21 18:00,6.75,317.7,0.12,-4.54,4.99
2003-02-21 19:00,3.81,105.7,0.05,3.67,-1.03
2003-02-21 20:00,9.39,191.1,-0.01,-1.81,-9.21
2003-02-21 21:00,28.45,188.3,-0.05,-4.10,-28.15
2003-02-21 22:00,43.99,159.8,-0.11,15.19,-41.29
2003-02-21 23:00,33.73,183.7,-0.15,-2.19,-33.66
2003-02-22 00:00,26.69,164.4,-0.15,7.19,-25.70
2003-02-22 01:00,17.60,170.4,-0.18,2.95,-17.35
2003-02-22 02:00,8.21,174.9,-0.28,0.73,-8.18
2003-02-22 03:00,7.33,345.4,-0.25,-1.85,7.10
2003-02-22 04:00,18.48,4.8,-0.22,1.53,18.41
2003-02-22 05:00,20.53,349.3,-0.18,-3.82,20.17
2003-02-22 06:00,19.94,325.8,-0.11,-11.22,16.49
2003-02-22 07:00,12.91,290.2,-0.05,-12.11,4.47
2003-02-22 08:00,15.25,146.8,-0.08,8.35,-12.76
2003-02-22 09:00,27.86,190.4,-0.15,-5.03,-27.41
2003-02-22 10:00,35.49,176.0,-0.08,2.49,-35.40
2003-02-22 11:00,42.82,167.9,-0.08,8.98,-41.87
2003-02-22 12:00,31.68,177.4,-0.11,1.44,-31.64
2003-02-22 13:00,19.36,185.5,-0.08,-1.85,-19.27
2003-02-22 14:00,16.13,209.4,-0.05,-7.91,-14.06
2003-02-22 15:00,6.45,308.9,-0.01,-5.02,4.05
2003-02-22 16:00,23.46,325.4,-0.01,-13.32,19.32
2003-02-22 17:00,31.68,336.7,-0.01,-12.55,29.08
2003-02-22 18:00,12.91,320.1,0.05,-8.27,9.91
2003-02-22 19:00,17.30,307.1,0.12,-13.80,10.44
2003-02-22 20:00,10.85,286.0,0.19,-10.43,3.00
2003-02-22 21:00,19.36,165.4,0.05,4.87,-18.74
2003-02-22 22:00,29.33,176.0,0.05,2.06,-29.26
2003-02-22 23:00,37.54,165.4,0.02,9.44,-36.34
2003-02-23 00:00,31.38,177.7,-0.01,1.24,-31.36
2003-02-23 01:00,29.92,199.9,0.02,-10.18,-28.13
2003-02-23 02:00,19.94,220.3,0.02,-12.89,-15.22
2003-02-23 03:00,16.42,262.1,0.02,-16.27,-2.25
2003-02-23 04:00,17.01,269.5,0.05,-17.01,-0.15
2003-02-23 05:00,26.69,327.2,0.09,-14.47,22.43
2003-02-23 06:00,20.82,315.2,0.12,-14.67,14.78
2003-02-23 07:00,16.42,304.3,0.19,-13.57,9.26
2003-02-23 08:00,12.32,273.4,0.22,-12.30,0.72
2003-02-23 09:00,15.25,193.9,0.26,-3.67,-14.80
2003-02-23 10:00,27.28,178.4,0.16,0.74,-27.27
2003-02-23 11:00,42.53,172.1,0.09,5.84,-42.13
2003-02-23 12:00,40.48,167.9,0.02,8.49,-39.58
2003-02-23 13:00,26.10,176.3,0.05,1.67,-26.05
2003-02-23 14:00,17.01,182.7,0.09,-0.79,-16.99
2003-02-23 15:00,25.22,170.0,-0.01,4.38,-24.84
2003-02-23 16:00,15.54,261.4,0.09,-15.37,-2.32
2003-02-23 17:00,26.40,329.6,0.12,-13.35,22.77
2003-02-23 18:00,26.40,346.8,0.16,-6.02,25.70
2003-02-23 19:00,19.36,5.1,0.19,1.72,19.28
2003-02-23 20:00,7.33,39.9,0.16,4.70,5.62
2003-02-23 21:00,16.42,166.5,0.12,3.84,-15.97
2003-02-23 22:00,21.70,163.7,0.12,6.10,-20.83
2003-02-23 23:00,34.02,176.7,0.16,1.97,-33.97
2003-02-24 00:00,49.27,169.7,0.09,8.85,-48.47
2003-02-24 01:00,48.10,169.7,-0.01,8.64,-47.32
2003-02-24 02:00,33.14,166.8,-0.01,7.55,-32.27
2003-02-24 03:00,21.12,170.7,-0.05,3.41,-20.84
2003-02-24 04:00,30.21,151.7,-0.11,14.31,-26.60
2003-02-24 05:00,24.34,155.6,-0.22,10.06,-22.17
2003-02-24 06:00,6.45,204.5,-0.15,-2.67,-5.87